Location: Augsburg
(48.3836°N, 10.8929°E)
Time: 06:34:19
(UTC+01:00)

ISS - Pass Details

Date: 05 December 2021
Orbit: 413 x 423 km, 51.6° (Epoch: 20 January)

Event Time Altitude Azimuth Distance (km) Brightness Sun altitude
Rises 18:43:10 0° 289° (WNW) 2,381 1.1 -22.4°
Reaches altitude 10° 18:45:29 10° 276° (W) 1,511 0.1 -22.8°
Maximum altitude 18:48:22 26° 218° (SW) 868 -1.8 -23.3°
Enters shadow 18:49:00 24° 198° (SSW) 909 -1.9 -23.4°
